Lamar, CO

7:12 PM MST on November 14, 2019 (GMT -0700)
Lamar Municipal

Weather History for KLAA - September, 2019

Change the Weather History Date:

Friday, September 13, 2019

  Actual Average Record
Temperature  
Mean Temperature 68 °F 68 °F  
Max Temperature 90 °F 84 °F 101 °F (1922)
Min Temperature 46 °F 52 °F 32 °F (1945)
Degree Days  
Heating Degree Days 0 2  
Month to date heating degree days 0 13  
Since 1 July heating degree days 0 18  
Cooling Degree Days 3 4  
Month to date cooling degree days 159 76  
Year to date cooling degree days 1261 1065  
Growing Degree Days 18 (Base 50)    
Moisture  
Dew Point 52 °F    
Average Humidity 56    
Maximum Humidity 80    
Minimum Humidity 32    
Precipitation  
Precipitation T in 0.04 in 1.58 in (2013)
Month to date precipitation 0.50 0.64  
Year to date precipitation 7.73 13.01  
Sea Level Pressure  
Sea Level Pressure 30.07 in    
Wind  
Wind Speed 10 mph (SE)    
Max Wind Speed 23 mph    
Max Gust Speed 35 mph    
Visibility 10 miles    
Events      
T = Trace of Precipitation, MM = Missing Value Source: NWS Daily Summary

Daily Weather History Graph

Daily Weather History Graph

Search for Another Location

Airport or City:

Astronomy

Sep. 13, 2019 Rise Set
Actual Time 6:30 AM MDT 7:02 PM MDT
Civil Twilight 6:04 AM MDT 7:28 PM MDT
Nautical Twilight 5:32 AM MDT 7:59 PM MDT
Astronomical Twilight 5:00 AM MDT 8:31 PM MDT
Moon 7:15 PM MDT (9/13) 5:51 AM MDT (9/13)
Length of Visible Light 13h 24m
Length of Day
12h 31m
Full, 100% of the Moon is Illuminated
Sep 13
Full
Sep 13
Full
Sep 21
Last Quarter
Sep 28
New
Oct 5
First Quarter

Hourly Weather History & Observations

Time (MDT) Temp. Heat Index Dew Point Humidity Pressure Visibility Wind Dir Wind Speed Gust Speed Precip Events Conditions
12:53 AM 57.9 °F - 39.9 °F 51% 30.16 in 10.0 mi ESE 8.1 mph - N/A   Clear
1:53 AM 53.1 °F - 43.0 °F 69% 30.18 in 10.0 mi Calm Calm - N/A   Clear
2:53 AM 55.0 °F - 42.1 °F 62% 30.16 in 10.0 mi Calm Calm - N/A   Clear
3:53 AM 51.1 °F - 42.1 °F 71% 30.17 in 10.0 mi Calm Calm - N/A   Clear
4:53 AM 48.9 °F - 42.1 °F 77% 30.18 in 10.0 mi Calm Calm - N/A   Clear
5:53 AM 48.0 °F - 42.1 °F 80% 30.19 in 10.0 mi ESE 3.5 mph - N/A   Clear
6:53 AM 48.0 °F - 43.0 °F 83% 30.20 in 10.0 mi Calm Calm - N/A   Clear
7:53 AM 57.0 °F - 45.0 °F 64% 30.21 in 10.0 mi ESE 4.6 mph - N/A   Clear
8:53 AM 64.0 °F - 46.9 °F 54% 30.19 in 10.0 mi NE 6.9 mph - N/A   Partly Cloudy
9:53 AM 73.9 °F - 55.0 °F 52% 30.16 in 10.0 mi SSE 12.7 mph - N/A   Mostly Cloudy
10:53 AM 77.0 °F - 57.9 °F 52% 30.15 in 10.0 mi South 15.0 mph 26.5 mph 0.00 in   Mostly Cloudy
11:53 AM 80.1 °F 80.4 °F 57.0 °F 45% 30.11 in 10.0 mi South 17.3 mph 29.9 mph N/A   Mostly Cloudy
12:53 PM 84.0 °F 83.0 °F 55.9 °F 38% 30.06 in 10.0 mi South 20.7 mph 33.4 mph N/A   Clear
1:53 PM 86.0 °F 85.0 °F 57.9 °F 38% 30.03 in 10.0 mi South 16.1 mph 28.8 mph N/A   Partly Cloudy
2:53 PM 88.0 °F 86.5 °F 55.9 °F 34% 29.97 in 10.0 mi South 16.1 mph 28.8 mph N/A   Partly Cloudy
3:53 PM 89.1 °F 87.1 °F 55.0 °F 31% 29.95 in 10.0 mi South 15.0 mph 31.1 mph N/A   Clear
4:53 PM 89.1 °F 87.3 °F 55.9 °F 32% 29.94 in 10.0 mi SSE 19.6 mph 28.8 mph N/A   Clear
5:53 PM 84.9 °F 83.9 °F 57.0 °F 38% 29.94 in 10.0 mi SSE 20.7 mph 27.6 mph N/A   Partly Cloudy
6:53 PM 82.9 °F 82.6 °F 57.9 °F 42% 29.95 in 10.0 mi SSE 17.3 mph 26.5 mph N/A   Clear
7:53 PM 80.1 °F 80.4 °F 57.0 °F 45% 29.94 in 10.0 mi SE 10.4 mph - N/A   Clear
8:53 PM 78.1 °F - 57.9 °F 50% 29.94 in 10.0 mi SSE 12.7 mph - N/A   Clear
9:53 PM 73.0 °F - 57.9 °F 59% 29.95 in 10.0 mi ESE 9.2 mph - N/A   Clear
10:53 PM 73.9 °F - 57.0 °F 55% 29.94 in 10.0 mi SSE 11.5 mph - N/A   Clear
11:53 PM 66.9 °F - 57.0 °F 70% 29.96 in 10.0 mi East 5.8 mph - N/A   Clear